[[{"header":{"parameterUnit":"m.s-1","parameterCategory":1,"la1":30.2991,"la2":30.254,"lo1":-89.0895,"lo2":-89.0444,"dy":0.0017,"dx":0.0017,"nx":28,"ny":28,"refTime":"2025-08-09T03:00:00:Z","depth":0,"parameterNumber":2,"parameterNumberName":"U-component_of_WINDS"},"data":[0,0,0,0,0,0,0,0,0,0,0,0,0,0,0,0,0,0,0,0,0,0,0,0,0,0,0,0,0,0,0,0,0,0,0,0,0,0,0,0,0,0,0,0,0,0,0,0,0,0,0,0,0,0,0,0,0,0,-1.9763,-1.9764,0,-1.9828,-1.9829,-1.983,-1.9808,-1.9807,-1.9805,-1.9804,-1.9872,-1.9875,-1.9879,0,0,0,0,0,0,0,0,0,0,0,0,0,-1.9622,-1.9625,-1.9763,-1.9764,-1.9765,-1.9828,-1.9829,-1.983,-1.9808,-1.9807,-1.9805,-1.9803,-1.9871,-1.9875,-1.9879,0,0,0,0,0,0,0,0,0,0,0,0,0,-1.9685,-1.9626,-1.9763,-1.9762,-1.9762,-1.9828,-1.9829,-1.983,-1.9809,-1.9807,-1.9804,-1.9802,-1.987,-1.9875,-1.9879,-1.9951,0,0,-1.9894,-1.9896,0,0,0,0,0,0,0,0,-1.9681,-1.969,-1.9761,-1.9762,-1.9762,-1.9808,-1.9805,-1.9871,-1.9809,-1.9791,-1.9804,-1.9801,-1.9853,-1.9859,-1.9876,-1.9955,-1.9958,-1.9894,-1.9897,-1.9899,-1.99,0,0,0,0,0,0,0,-1.9677,-1.9687,-1.9789,-1.9762,-1.9763,-1.9758,-1.9765,-1.9817,-1.9833,-1.9792,-1.9791,-1.9799,-1.9853,-1.9871,-1.9877,-1.9959,-1.9894,-1.9898,-1.9901,-1.9903,-2.0101,-2.0104,0,0,0,0,0,0,-1.9672,-1.9684,-1.9787,-1.9791,-1.9716,-1.9763,-1.977,-1.9796,-1.9833,-1.9836,-1.9801,-1.9798,-1.9864,-1.9872,-1.988,-1.9967,-1.9899,-1.9904,-1.9906,-2.0099,-2.0102,-2.0104,0,0,0,0,0,0,-1.9669,-1.9681,-1.9784,-1.9737,-1.975,-1.9767,-1.9796,-1.9798,-1.9816,-1.9839,-1.9842,-1.9816,-1.9863,-1.9873,-1.9934,-1.9969,-1.9906,-1.991,-2.0096,-2.01,-2.0103,-2.0142,0,0,0,0,0,0,-1.9665,-1.968,-1.9707,-1.9738,-1.9752,-1.9837,-1.9798,-1.9801,-1.9824,-1.9821,-1.9854,-1.9858,-1.9862,-1.9927,-1.9939,-1.9974,-1.9914,-2.0093,-2.0098,-2.0102,-2.0138,-2.0147,-2.0154,0,0,0,0,0,-1.966,-1.9716,-1.9709,-1.9721,-1.9786,-1.9839,-1.9847,-1.985,-1.9827,-1.9855,-1.987,-1.9857,-1.9963,-1.9933,-1.9946,-1.9984,-2.0091,-2.0096,-2.0102,-2.0134,-2.0145,-2.0154,0,0,0,0,0,0,-1.9689,-1.972,-1.9712,-1.9779,-1.9807,-1.9835,-1.987,-1.9862,-1.9897,-1.9892,-1.9895,-1.9903,-1.9966,-1.9981,-1.9947,-2.0057,-2.0024,-2.0032,-2.0044,-2.0054,-2.0063,-2.0057,-1.9918,0,0,0,0,0,-1.9704,-1.9743,-1.9768,-1.9825,-1.9839,-1.9852,-1.9875,-1.9875,-1.9904,-1.9916,-1.9935,-1.9963,-2.0004,-2.003,-2.0068,-2.014,-2.0148,-2.0173,-2.0181,-2.0188,-2.0195,-2.0235,-2.0247,-2.0122,-2.0122,-2.0122,0,0,-1.9733,-1.9755,-1.978,-1.9831,-1.9852,-1.9894,-1.9862,-1.9907,-1.9939,-1.9923,-1.9981,-1.9997,-2.0029,-2.0096,-2.0127,-2.0111,-2.0231,-2.0194,-2.02,-2.0203,-2.0242,-2.0254,-2.0264,-2.0126,-2.0125,-2.0125,0,0,-1.9809,-1.9829,-1.9879,-1.9901,-1.9933,-1.9942,-1.9954,-1.9984,-1.9994,-2.0053,-2.0042,-2.008,-2.0148,-2.0172,-2.0193,-2.028,-2.027,-2.0292,-2.0335,-2.0375,-2.0384,-2.0393,-2.0425,-2.0436,-2.0299,-2.0299,-2.03,0,-1.9842,-1.9904,-1.9906,-1.9952,-1.9976,-1.9963,-2.0014,-2.0036,-2.0079,-2.0096,-2.0078,-2.0165,-2.0186,-2.0259,-2.028,-2.0297,-2.0312,-2.0288,-2.0383,-2.0391,-2.04,-2.043,-2.0441,-2.0302,-2.0302,-2.0301,-2.0301,0,-1.9943,-1.9986,-2.0023,-2.0065,-2.0093,-2.0141,-2.0151,-2.0179,-2.0178,-2.0189,-2.025,-2.0275,-2.0318,-2.0335,-2.0334,-2.0409,-2.0398,-2.0381,-2.0349,-2.0414,-2.0442,-2.0454,-2.0306,-2.0305,-2.0304,-2.0303,0,0,-2.0038,-2.0081,-2.0095,-2.0114,-2.015,-2.0183,-2.0232,-2.0274,-2.0298,-2.0329,-2.0371,-2.043,-2.0415,-2.0439,-2.0441,-2.0475,-2.0543,-2.0455,-2.0455,-2.0471,-2.0628,-2.0641,-2.0654,-2.0537,-2.0539,-2.0541,-2.0626,0,-2.0117,-2.0202,-2.0205,-2.0283,-2.0323,-2.0313,-2.0355,-2.0382,-2.0394,-2.0431,-2.0445,-2.0487,-2.0463,-2.0478,-2.0512,-2.0528,-2.0575,-2.0522,-2.0577,-2.0578,-2.0569,-2.0669,-2.0682,-2.076,-2.0637,-2.0639,-2.064,0,-2.022,-2.0254,-2.0335,-2.0366,-2.0383,-2.0421,-2.046,-2.0495,-2.0526,-2.0533,-2.0561,-2.0557,-2.0609,-2.0574,-2.0646,-2.0609,-2.0632,-2.0644,-2.0647,-2.0652,-2.0613,-2.0677,-2.0786,-2.0798,-2.0657,-2.0656,-2.0655,0,-2.0282,-2.0348,-2.0405,-2.0422,-2.0459,-2.0486,-2.0503,-2.0532,-2.0557,-2.0592,-2.0609,-2.065,-2.0672,-2.0704,-2.0713,-2.0687,-2.0784,-2.0751,-2.0792,-2.0792,-2.0813,-2.0811,-2.0927,-2.0827,-2.0827,-2.0827,-2.0827,0,-2.0369,-2.042,-2.0433,-2.0469,-2.0525,-2.053,-2.0586,-2.0601,-2.0627,-2.0666,-2.066,-2.0697,-2.0706,-2.0745,-2.0752,-2.081,-2.0821,-2.0828,-2.0829,-2.0829,-2.0828,-2.0843,-2.0838,-2.083,-2.0829,-2.0829,-2.0828,0,-2.0448,-2.0459,-2.0521,-2.0551,-2.056,-2.06,-2.0626,-2.0661,-2.0672,-2.0722,-2.0734,-2.0752,-2.0798,-2.081,-2.0865,-2.087,-2.0939,-2.0935,-2.0928,-2.0928,-2.0969,-2.0965,-2.1099,-2.1117,-2.1006,-2.1007,-2.1007,0,-2.0503,-2.0541,-2.0576,-2.0601,-2.0619,-2.066,-2.0686,-2.0692,-2.072,-2.0759,-2.0789,-2.0834,-2.087,-2.0944,-2.0963,-2.1005,-2.1003,-2.1047,-2.1009,-2.1007,-2.1004,-2.1002,-2.1006,-2.1054,-2.1055,-2.1056,-2.1057,0,-2.06,-2.0604,-2.0641,-2.068,-2.0711,-2.0743,-2.0773,-2.0795,-2.0806,-2.0837,-2.0884,-2.0912,-2.0968,-2.1013,-2.1056,-2.1075,-2.1068,-2.1068,-2.108,-2.108,-2.1075,-2.1079,-2.0948,-2.1065,-2.1064,-2.1064,-2.1063,-2.1063,-2.0668,-2.0702,-2.0732,-2.0774,-2.0797,-2.0826,-2.086,-2.0876,-2.0915,-2.096,-2.0962,-2.1013,-2.1045,-2.1102,-2.1123,-2.1164,-2.115,-2.1168,-2.1172,-2.1176,-2.118,-2.1068,-2.1171,-2.1171,-2.1171,-2.1171,-2.1171,0,-2.0765,-2.0784,-2.0822,-2.0865,-2.0898,-2.0889,-2.0922,-2.0951,-2.0995,-2.1025,-2.1061,-2.1115,-2.1159,-2.1182,-2.1226,-2.1255,-2.1253,-2.1266,-2.1264,-2.1269,-2.1189,-2.1174,-2.1267,-2.1267,-2.1267,-2.1267,-2.1267,-2.1267,-2.082,-2.0877,-2.0884,-2.0954,-2.0972,-2.1021,-2.1041,-2.1068,-2.1092,-2.1152,-2.1189,-2.1203,-2.1231,-2.1277,-2.1318,-2.1323,-2.134,-2.1355,-2.1359,-2.1284,-2.1274,-2.1265,-2.1251,-2.1359,-2.1359,-2.1436,-2.1437,-2.1437]},{"header":{"parameterUnit":"m.s-1","parameterCategory":1,"la1":30.2991,"la2":30.254,"lo1":-89.0895,"lo2":-89.0444,"dy":0.0017,"dx":0.0017,"nx":28,"ny":28,"refTime":"2025-08-09T03:00:00:Z","depth":0,"parameterNumber":3,"parameterNumberName":"V-component_of_WINDS"},"data":[0,0,0,0,0,0,0,0,0,0,0,0,0,0,0,0,0,0,0,0,0,0,0,0,0,0,0,0,0,0,0,0,0,0,0,0,0,0,0,0,0,0,0,0,0,0,0,0,0,0,0,0,0,0,0,0,0,0,-0.8438,-0.8439,0,-0.8502,-0.8503,-0.8503,-0.8497,-0.8496,-0.8495,-0.8495,-0.8562,-0.8565,-0.8567,0,0,0,0,0,0,0,0,0,0,0,0,0,-0.8313,-0.8316,-0.8438,-0.8439,-0.844,-0.8502,-0.8503,-0.8503,-0.8498,-0.8496,-0.8495,-0.8494,-0.8561,-0.8564,-0.8568,0,0,0,0,0,0,0,0,0,0,0,0,0,-0.8371,-0.8317,-0.8438,-0.8444,-0.8445,-0.8502,-0.8503,-0.8504,-0.8498,-0.8496,-0.8495,-0.8494,-0.856,-0.8564,-0.8568,-0.8623,0,0,-0.8581,-0.8582,0,0,0,0,0,0,0,0,-0.8368,-0.8376,-0.8443,-0.8444,-0.8445,-0.849,-0.8483,-0.8544,-0.8498,-0.8478,-0.8495,-0.8493,-0.854,-0.8545,-0.856,-0.8626,-0.8629,-0.8581,-0.8583,-0.8585,-0.8586,0,0,0,0,0,0,0,-0.8364,-0.8373,-0.8463,-0.8444,-0.8445,-0.8444,-0.8451,-0.8495,-0.8516,-0.848,-0.8479,-0.8487,-0.854,-0.8557,-0.8562,-0.863,-0.8581,-0.8584,-0.8587,-0.8589,-0.8743,-0.8744,0,0,0,0,0,0,-0.8358,-0.837,-0.8461,-0.8465,-0.8402,-0.8448,-0.8455,-0.8477,-0.8516,-0.852,-0.8488,-0.8486,-0.855,-0.8557,-0.8564,-0.863,-0.8585,-0.8589,-0.8591,-0.8741,-0.8743,-0.8745,0,0,0,0,0,0,-0.8356,-0.8367,-0.8459,-0.8418,-0.8429,-0.8452,-0.8476,-0.8479,-0.8496,-0.8522,-0.8526,-0.8501,-0.8549,-0.8559,-0.8608,-0.8633,-0.8591,-0.8594,-0.8739,-0.8742,-0.8744,-0.8763,0,0,0,0,0,0,-0.8352,-0.8366,-0.8386,-0.8418,-0.8431,-0.8501,-0.8478,-0.8482,-0.8503,-0.8501,-0.8535,-0.854,-0.8549,-0.8602,-0.8612,-0.8638,-0.8598,-0.8737,-0.874,-0.8743,-0.8761,-0.8766,-0.8771,0,0,0,0,0,-0.8348,-0.839,-0.8388,-0.8399,-0.8458,-0.8503,-0.851,-0.852,-0.8505,-0.8526,-0.8542,-0.8538,-0.8628,-0.8607,-0.8618,-0.8646,-0.8735,-0.8739,-0.8743,-0.8758,-0.8765,-0.8771,0,0,0,0,0,0,-0.8362,-0.8394,-0.8392,-0.8446,-0.8471,-0.8501,-0.8529,-0.8527,-0.8558,-0.8555,-0.8566,-0.8574,-0.8623,-0.8639,-0.8615,-0.87,-0.868,-0.8686,-0.8688,-0.8694,-0.87,-0.8695,-0.8601,0,0,0,0,0,-0.8371,-0.8404,-0.8431,-0.8476,-0.8489,-0.8506,-0.8526,-0.8531,-0.8558,-0.8569,-0.859,-0.8617,-0.8651,-0.8674,-0.8707,-0.8763,-0.877,-0.8787,-0.8792,-0.8796,-0.8802,-0.8832,-0.884,-0.8757,-0.8757,-0.8757,0,0,-0.8391,-0.8413,-0.8433,-0.8479,-0.85,-0.8534,-0.8516,-0.8553,-0.8579,-0.8575,-0.8623,-0.8639,-0.867,-0.8722,-0.8747,-0.8737,-0.8826,-0.8801,-0.8804,-0.8807,-0.8836,-0.8844,-0.8851,-0.876,-0.8759,-0.8759,0,0,-0.8444,-0.8464,-0.8503,-0.8524,-0.8554,-0.8566,-0.8575,-0.8605,-0.8615,-0.8663,-0.8661,-0.8692,-0.8751,-0.8773,-0.8792,-0.8852,-0.8849,-0.8862,-0.889,-0.8919,-0.8926,-0.8931,-0.8953,-0.896,-0.8868,-0.8868,-0.8868,0,-0.8465,-0.8516,-0.8524,-0.8561,-0.8582,-0.8579,-0.8619,-0.8638,-0.8679,-0.8693,-0.8682,-0.8755,-0.8776,-0.8833,-0.8847,-0.8863,-0.8874,-0.8859,-0.8924,-0.893,-0.8935,-0.8956,-0.8964,-0.8869,-0.8869,-0.8869,-0.8869,0,-0.854,-0.8576,-0.8604,-0.8641,-0.8665,-0.8703,-0.8717,-0.874,-0.8742,-0.8755,-0.8803,-0.8828,-0.8865,-0.8879,-0.8883,-0.8937,-0.893,-0.8921,-0.8901,-0.8945,-0.8964,-0.8972,-0.8871,-0.8871,-0.887,-0.887,0,0,-0.8606,-0.8646,-0.8656,-0.8673,-0.8706,-0.8734,-0.8772,-0.8808,-0.8827,-0.8854,-0.8887,-0.8936,-0.8928,-0.8949,-0.8955,-0.898,-0.9026,-0.8968,-0.8969,-0.8978,-0.9087,-0.9094,-0.9103,-0.9024,-0.9026,-0.9027,-0.9085,0,-0.8662,-0.8729,-0.8737,-0.8797,-0.8829,-0.8826,-0.886,-0.8884,-0.8896,-0.8926,-0.894,-0.8975,-0.8961,-0.8974,-0.8999,-0.9015,-0.9048,-0.9011,-0.9055,-0.9056,-0.9047,-0.9113,-0.9121,-0.9174,-0.9092,-0.9094,-0.9095,0,-0.8738,-0.8766,-0.8829,-0.8857,-0.8871,-0.89,-0.8933,-0.8962,-0.8989,-0.8996,-0.9019,-0.9021,-0.906,-0.9038,-0.9093,-0.9067,-0.9086,-0.9096,-0.9099,-0.9103,-0.9078,-0.912,-0.9192,-0.92,-0.9107,-0.9106,-0.9105,0,-0.8779,-0.8833,-0.8877,-0.8892,-0.8925,-0.8946,-0.8961,-0.8986,-0.9007,-0.9036,-0.905,-0.9083,-0.9101,-0.9127,-0.9138,-0.9121,-0.9192,-0.9171,-0.92,-0.9199,-0.9215,-0.9214,-0.9291,-0.9227,-0.9227,-0.9226,-0.9226,0,-0.8842,-0.888,-0.8896,-0.8923,-0.8966,-0.8974,-0.9017,-0.9031,-0.9054,-0.9084,-0.9084,-0.9112,-0.9125,-0.9155,-0.9164,-0.9208,-0.9216,-0.9223,-0.9225,-0.9223,-0.9222,-0.9236,-0.9232,-0.9229,-0.9228,-0.9228,-0.9227,0,-0.8895,-0.8907,-0.8955,-0.8983,-0.899,-0.9021,-0.9044,-0.9071,-0.9082,-0.912,-0.913,-0.9148,-0.9184,-0.9197,-0.9241,-0.9247,-0.9297,-0.9296,-0.9288,-0.9289,-0.9316,-0.9314,-0.9405,-0.9417,-0.9344,-0.9345,-0.9346,0,-0.8935,-0.8964,-0.8994,-0.9013,-0.9029,-0.9061,-0.9082,-0.9091,-0.9112,-0.9145,-0.9167,-0.9202,-0.9231,-0.9288,-0.9306,-0.9339,-0.9339,-0.9369,-0.9344,-0.9341,-0.934,-0.9338,-0.9341,-0.9373,-0.9374,-0.9375,-0.9375,0,-0.9003,-0.9007,-0.9037,-0.9068,-0.9093,-0.9118,-0.9143,-0.9159,-0.9172,-0.9196,-0.9232,-0.9254,-0.9298,-0.9334,-0.9367,-0.9383,-0.9382,-0.9383,-0.9391,-0.939,-0.9384,-0.9387,-0.9301,-0.9381,-0.938,-0.938,-0.9379,-0.9379,-0.9051,-0.9077,-0.9101,-0.9134,-0.9153,-0.9176,-0.9202,-0.9216,-0.9246,-0.9282,-0.9285,-0.9324,-0.935,-0.9395,-0.9412,-0.9443,-0.9435,-0.9447,-0.945,-0.9453,-0.9455,-0.9378,-0.9449,-0.9449,-0.9449,-0.9448,-0.9448,0,-0.9119,-0.9135,-0.9165,-0.9199,-0.9224,-0.9219,-0.9246,-0.9268,-0.9302,-0.9325,-0.9353,-0.9394,-0.9428,-0.9447,-0.9481,-0.9502,-0.9502,-0.951,-0.9509,-0.9513,-0.946,-0.9449,-0.951,-0.951,-0.951,-0.951,-0.951,-0.951,-0.9158,-0.9201,-0.9208,-0.926,-0.9276,-0.9313,-0.9329,-0.935,-0.9368,-0.9414,-0.9441,-0.9454,-0.9476,-0.9511,-0.9541,-0.9546,-0.9559,-0.9568,-0.9572,-0.9523,-0.9517,-0.9511,-0.9501,-0.9571,-0.9571,-0.9622,-0.9623,-0.9623]}]]